エレーニン彗星

C/2017 A3 ( Elenin )

English version
Home page
Updated on May 22, 2017

---------------------------------------------------------------------

・ プロフィール

発見日 2017年1月5日
発見光度 17.6等
発見者 L. Elenin (ISON-SSO Observatory at Siding Spring)

・ 写真集

・ 軌道要素

Epoch 2017 Feb. 16.0 TT = JDT 2457800.5
T 2017 Jan. 30.61192 TT                                 MPCW
q   3.8544754            (2000.0)            P               Q
z  +0.0231171      Peri.  304.10893     -0.19845421     -0.03168869
 +/-0.0000000      Node    97.90461     +0.81987388     +0.54229481
e   0.9108957      Incl.   98.50817     -0.53705005     +0.83959047
From 168 observations 2017 Jan. 5-Apr. 25, mean residual 0".5.

・ 光度変化

        m1 = 9.0 + 5 logΔ + 10.0 log r

---------------------------------------------------------------------

軌道要素はM.P.E.C. 2017-J52に掲載されたものです。
光度グラフはComet for Windowsで作成したものです。

---------------------------------------------------------------------

Copyright(C) Seiichi Yoshida (comet@aerith.net). All rights reserved.